www.pogodaiklimat.ru

Погода и климат >> Архив погоды >> Антарктида >> Сёва


ПОГОДА на Сёве

  • Прогноз погоды на Сёве
  • Монитор погоды на Сёве

АРХИВ ПОГОДЫ на Сёве

Время (UTC), дата Ветер
(напр.,м/с)
 
Видим.   Явления Облачность Т
(С)
Тd
(С)
f
(%)
Тe
(С)
Тes
(С)
Комфортность P
(гПа)
Po
(гПа)
Тmin
(С)
Tmax
(С)
R
(мм)
R24
(мм)
S
(см)
21 16.02 В 16 20 км 4/3
[Sc Ac trans]
-0.5 -7.4 60 -10 -10 981.5 978.8
00 17.02 В 17 20 км 9/9
[Sc]
0.0 -7.0 59 -9 -9 984.2 981.5 -1.1 +1.6
03 17.02 В 16 30 км 9/3
[Sc Ac As Ci sp]
-0.4 -7.8 57 -10 -10 985.9 983.2
06 17.02 В 17 20 км 9/5
[Sc Ac As Ci sp]
+1.4 -5.8 59 -8 -8 986.8 984.1
09 17.02 В 14 30 км 9/8
[Sc Ac trans Ci sp]
+2.9 -4.3 59 -5 -5 989.7 987.0
12 17.02 В 12 30 км 9/1
[Sc Ac As Ci sp]
+3.4 -3.6 60 -4 -4 991.2 988.5 -0.5 +3.6
15 17.02 В 14 30 км 9/5
[Sc Ac As Ci sp]
+2.7 -4.3 60 -5 -5 992.4 989.7
18 17.02 СВ 7 30 км 9/4
[Sc Ac trans Ci sp]
+1.0 -4.2 68 -6 -6 995.0 992.3
21 17.02 В 6 20 км 8/4
[Sc Ac trans Ci sp]
+0.5 -6.7 58 -5 -5 997.8 995.1
00 18.02 СВ 3 30 км 9/1
[Sc Ac trans Ci sp]
-0.1 -7.5 57 -4 -4 998.8 996.1 -0.9 +3.4
03 18.02 В 6 30 км 6/1
[Sc Ac trans Ci sp]
-1.4 -7.1 65 -8 -8 999.6 996.9
06 18.02 Ю 3 30 км 9/1
[Sc Ac trans Ci sp]
+1.6 -7.2 52 -2 -1 999.0 996.3
09 18.02 В 2 30 км 6/0
[Ac trans Ci sp]
+4.4 -6.2 46 +3 +9 998.2 995.5
12 18.02 Ю 3 20 км 9/0
[Ac trans Ci sp]
+5.3 -3.5 53 +2 +5 997.1 994.5 -2.3 +6.0
15 18.02 Ю 4 20 км 9/1
[Sc Ac As Ci sp]
+4.7 -3.6 55 +1 +2 996.1 993.4
18 18.02 Ю 3 30 км 9/3
[Sc Ci sp]
+3.4 -3.0 63 0 0 995.0 992.3
21 18.02 В 9 30 км 9/3
[Sc Ci sp]
+3.5 -3.7 59 -3 -3 993.4 990.7
00 19.02 В 14 30 км 1/1
[Sc Ac trans Ci sp]
+2.3 -5.6 56 -6 -6 993.2 990.5 +2.3 +5.9
03 19.02 В 11 30 км 9/8
[Sc Ac trans Ci sp]
+2.3 -5.3 57 -5 -5 994.5 991.8
06 19.02 СВ 10 30 км 1/1
[Sc Ac trans]
+1.5 -5.0 62 -6 -5 995.2 992.5
09 19.02 СЗ 4 30 км 1/1
[Sc Ac trans]
+1.9 -2.4 73 -3 +2 996.3 993.6
12 19.02 Ю 5 30 км 1/0
[Ac trans Ci sp]
+3.6 -3.0 62 -1 +1 995.5 992.8 +1.0 +5.0
15 19.02 ЮВ 3 20 км 3/0
[Ac trans Ci sp]
+3.3 -3.7 60 -0 +1 994.7 992.0
18 19.02 В 3 30 км 1/1
[Sc Ac trans]
-0.1 -5.9 65 -4 -4 994.4 991.7
21 19.02 СВ 6 30 км 1/1
[Sc]
-1.9 -8.0 63 -9 -9 995.0 992.3
00 20.02 В 9 30 км 1/1
[Sc Ac trans]
-3.0 -10.5 56 -11 -11 995.1 992.4 -3.7 +3.7
03 20.02 В 9 30 км 1/1
[Sc]
-3.0 -10.4 57 -11 -11 994.6 991.9
06 20.02 СВ 9 30 км 1/1
[Sc]
-1.1 -8.5 57 -9 -9 994.4 991.7
09 20.02 СВ 6 30 км 1/1
[Sc Ac trans]
-0.7 -6.0 67 -7 -5 994.8 992.1
12 20.02 СВ 6 30 км 1/1
[Sc Ac trans Ci sp]
-0.2 -5.6 67 -7 -5 994.6 991.9 -3.9 0.0
15 20.02 СВ 6 30 км 1/1
[Sc Ac trans Ci sp]
-1.1 -3.4 84 -8 -7 994.4 991.7
18 20.02 СВ 9 30 км 6/1
[Sc Ac As Ci sp]
-2.6 -6.9 72 -11 -11 993.5 990.8
21 20.02 СВ 13 20 км 9/9
[Sc]
-1.6 -6.5 69 -11 -11 994.0 991.3
00 21.02 СВ 16 15 км слаб. снег 9/9
[Sc]
-2.0 -4.6 82 -13 -13 992.7 990.0 -2.7 -0.1
03 21.02 СВ 13 10 км слаб. снег 9/9
[Sc]
-1.0 -3.7 82 -10 -10 993.2 990.5
06 21.02 СВ 12 20 км слаб. снег 10/10
[Sc]
+0.3 -3.6 75 -8 -8 992.2 989.5
09 21.02 СВ 10 20 км {снег} 10/10
[Sc]
+1.1 -3.4 72 -6 -6 989.6 986.9
12 21.02 СВ 3 20 км {снег} 10/10
[Sc]
+1.2 -3.3 72 -3 -3 986.0 983.3 -2.0 +1.7
15 21.02 В 17 3000 м слаб. снег 10/10
[Sc]
+0.9 -1.3 85 -9 -9 979.0 976.4
18 21.02 СВ 23 1500 м слаб. снег 10/10
[Sc]
+1.0 -0.4 90 -10 -10 973.7 971.1
21 21.02 СВ 26 200 м снег 10/10
[Sc]
+0.5 -0.2 95 -11 -11 972.1 969.5
00 22.02 СВ 31 <100 м сильн. снег 10/10
[Sc]
0.0 -0.4 97 -12 -12 971.9 969.3 0.0 +1.3
03 22.02 СВ 30 500 м снег {метель} 9/9
[Sc]
-0.9 -1.3 97 -14 -14 976.4 973.7
06 22.02 СВ 20 8000 м метель {снег} 9/5
[Cu Sc Ac As Ci sp]
-0.7 -1.5 94 -12 -12 983.2 980.5
09 22.02 СВ 14 10 км в посл. час снег 9/4 300 м
[Sc Ac As Ci sp]
0.0 -1.3 91 -9 -9 987.9 985.2
12 22.02 СВ 9 2000 м слаб. снег 10/10
[Sc]
-0.1 -0.9 94 -8 -8 990.2 987.5 -1.1 +0.1
15 22.02 СВ 9 5000 м слаб. снег 10/10
[Sc]
0.0 -1.4 90 -8 -8 990.6 987.9
18 22.02 СВ 25 100 м сильн. снег {метель} 10/10
[Sc]
-0.8 -1.4 96 -13 -13 990.8 988.1
21 22.02 СВ 13 1000 м метель {снег} 10/10
[Sc]
-1.1 -1.9 94 -11 -11 995.5 992.8
00 23.02 Ю 2 20 км {снег, метель} 9/9
[Sc]
-0.4 -2.4 86 -3 -3 997.5 994.8 -1.1 +0.3
03 23.02 СВ 2 30 км 9/4
[Sc Ac trans Ci sp]
+0.4 -1.8 85 -3 -2 997.1 994.4
06 23.02 СВ 2 30 км 9/3
[Sc Ac As Ci sp]
0.0 -5.5 66 -3 -1 996.3 993.6
09 23.02 СЗ 1 30 км 9/4
[Sc Ac As]
+1.3 -4.1 67 +1 +3 995.8 993.1
12 23.02 ЮВ 2 30 км 9/3
[Sc Ac As Ci sp]
+2.6 -4.1 61 -0 +2 995.0 992.3 -1.2 +2.8
15 23.02 В 3 30 км 9/1
[Sc Ac trans Ci sp]
+2.6 -4.8 58 -1 -0 993.7 991.0
18 23.02 В 5 30 км 8/8
[Sc Ac trans Ci sp]
-1.5 -6.2 70 -7 -7 992.9 990.2

 

Местоположение метеостанции Сёва (Антарктида): широта -69.00 долгота 39.58 высота над уровнем моря 21 м.

В архиве по умолчанию представлена погода на Сёве за последнюю неделю. Архивные данные за месяц целиком и за предыдущие месяцы, начиная с января 2011 года, Вы можете получить, выбрав интересующий диапазон дат из раскрывающегося списка и нажав кнопку "Ввод!".


*Определитесь, кто Вы:
робот инопланетянин человек

Внимание! Время в таблицах - всемирное. Для получения местного времени необходимо прибавить поправку, которая равна 0 ч.

Смотрите также архив погоды в соседних городах и на ближайших метеорологических станциях:

Погода на Молодежной (Антарктида) (297 км)
Погода на Relay Station (Антарктида) (570 км)

Пояснения к столбцам:

Ветер - указаны скорость ветра в м/с - средняя за 10 мин, порывы в срок и между сроками (в фигурных скобках) и направление, откуда дует ветер: С - северный, СВ - северо-восточный, В - восточный, ЮВ - юго-восточный, Ю - южный, ЮЗ - юго-западный, З - западный, СЗ - северо-западный.
Видимость - горизонтальная дальность видимости в метрах или километрах. При видимости от 1 до 10 км при отсутствии осадков обычно наблюдается дымка, при ухудшении видимости до 1 км и менее - туман. В сухую погоду видимость может ухудшаться дымом, пылью или мглою.
Явления - указаны атмосферные явления, наблюдавшиеся в срок или в последний час перед сроком; фигурными скобками обозначены явления, наблюдавшиеся между сроками (за 1-3 часа до срока); квадратными скобками обозначены град или гололедные отложения с указанием их диаметра в мм.
Облачность - указаны через наклонную черту общая и нижняя облачность в баллах и высота нижней границы облаков в метрах; квадратными скобками обозначены формы облаков: Ci - перистые, Cs - перисто-слоистые, Cc - перисто-кучевые, Ac - высококучевые, As - высокослоистые, Sc - слоисто-кучевые, Ns - слоисто-дождевые, Cu - кучевые, Cb - кучево-дождевые. Подробнее классификацию облаков см. в Атласе облаков (PDF).
T - Температура воздуха - температура, измеренная на высоте 2 м над землей.
Td - Температура точки росы - температура, при понижении до которой содержащийся в воздухе водяной пар достигнет насыщения.
f - Относительная влажность воздуха - влажноcть воздуха, измеренная на высоте 2 м над землей.
Te - Эффективная температура - температура, которую ощущает одетый по сезону человек в тени. Характеристика душности погоды. При расчете учитывается влияние влажности воздуха и скорости ветра на теплоощущения человека.
Tes - Эффективная температура на солнце - температура, которую ощущает человек, с поправкой на солнечный нагрев. Характеристика знойности погоды. Зависит от высоты солнца над горизонтом, облачности и скорости ветра. Ночью, в пасмурную погоду, а также при ветре 12 м/с и более поправка равна нулю.
P - Атмосферное давление - приведенное к уровню моря атмосферное давление.
Po - Атмосферное давление - измеренное на уровне метеостанции атмосферное давление.
Tmin - Минимальная температура - минимум температуры воздуха на высоте 2 м над землей.
Tmax - Максимальная температура - максимум температуры воздуха на высоте 2 м над землей.
R - Количество осадков - Количество выпавших осадков за период времени, мм. При наведении курсора мыши на число - период времени, за который выпало указанное количество осадков.
R24 - Количество осадков - Количество выпавших осадков за 24 часа, мм.
S - Снежный покров - Высота снежного покрова, см. При наведении курсора мыши на число - состояние снежного покрова и степень покрытия местности в баллах.